This is the latest recevied weather packets stored in our database for station/object K0QJ. If no packets are shown the sender has not sent any weather packets the latest 10 day(s).
| Time | Temp. | Humidity | Pressure | Rain* | Wind** | Luminosity | Snow |
|---|---|---|---|---|---|---|---|
| 1777299944 | 15.56° C | 99% | 1000 hPa | 0 mm | - | 136 W/m² | - |
| 1777299641 | 15.56° C | 99% | 1000.3 hPa | 0 mm | - | 141 W/m² | - |
| 1777299340 | 15° C | 99% | 1000 hPa | 0 mm | - | 120 W/m² | - |
| 1777299037 | 15° C | 99% | 1000.1 hPa | 0 mm | - | 105 W/m² | - |
| 1777298734 | 15° C | 99% | 1000.3 hPa | 0 mm | - | 69 W/m² | - |
| 1777298431 | 15° C | 99% | 999.4 hPa | 0 mm | - | 56 W/m² | - |
| 1777298127 | 15° C | 99% | 999.6 hPa | 0 mm | - | 56 W/m² | - |
| 1777297827 | 15° C | 99% | 1000.4 hPa | 0 mm | - | 69 W/m² | - |
| 1777297525 | 15° C | 99% | 1000.3 hPa | 0 mm | - | 70 W/m² | - |
| 1777297215 | 15° C | 99% | 1000.3 hPa | 0 mm | - | 62 W/m² | - |
| 1777296914 | 15° C | 99% | 1000.6 hPa | 0 mm | - | 74 W/m² | - |
| 1777296611 | 15° C | 99% | 1000 hPa | 0 mm | - | 73 W/m² | - |
| 1777296280 | 15° C | 99% | 1000.5 hPa | 0 mm | - | 68 W/m² | - |
| 1777295976 | 15° C | 99% | 1000.3 hPa | 0 mm | - | 58 W/m² | - |
| 1777295674 | 15° C | 99% | 1000 hPa | 0 mm | - | 54 W/m² | - |
| 1777295372 | 15° C | 99% | 1000.1 hPa | 0 mm | - | 40 W/m² | - |
| 1777295069 | 15° C | 99% | 1000.2 hPa | 0 mm | - | 42 W/m² | - |
| 1777294765 | 14.44° C | 99% | 1000 hPa | 0 mm | - | 26 W/m² | - |
| 1777294461 | 14.44° C | 99% | 999.9 hPa | 0 mm | - | 22 W/m² | - |
| 1777294158 | 14.44° C | 99% | 1000.1 hPa | 0 mm | - | 19 W/m² | - |
| 1777293855 | 14.44° C | 99% | 1000.2 hPa | 0 mm | - | 14 W/m² | - |
| 1777293550 | 14.44° C | 99% | 1000.3 hPa | 0 mm | - | 10 W/m² | - |
| 1777293245 | 14.44° C | 99% | 999.9 hPa | 0 mm | - | 5 W/m² | - |
| 1777292945 | 14.44° C | 99% | 1000.2 hPa | 0 mm | - | 3 W/m² | - |
| 1777292641 | 14.44° C | 99% | 1000 hPa | 0 mm | - | 2 W/m² | - |
* Rain latest hour (hover to see other rain measurements)
** Current wind speed in m/s (hover to see current wind gust speed)